Lefor, ND

1:43 AM MST on February 09, 2016 (GMT -0700)
Dickinson Municipal

Weather History for KDIK - October, 2014

Change the Weather History Date:

Saturday, October 4, 2014

  Actual Average Record
Temperature  
Mean Temperature 41 °F 49 °F  
Max Temperature 56 °F 62 °F 94 °F (1963)
Min Temperature 25 °F 36 °F 20 °F (1952)
Degree Days  
Heating Degree Days 24 16  
Month to date heating degree days 89 62  
Since 1 July heating degree days 452 416  
Cooling Degree Days 0 0  
Month to date cooling degree days 0 0  
Year to date cooling degree days 256 418  
Moisture  
Dew Point 29 °F    
Average Humidity 62    
Maximum Humidity 85    
Minimum Humidity 38    
Precipitation  
Precipitation T in 0.05 in 2.31 in (1998)
Month to date precipitation T 0.20  
Year to date precipitation 21.13 13.96  
Sea Level Pressure  
Sea Level Pressure 29.94 in    
Wind  
Wind Speed 7 mph (West)    
Max Wind Speed 16 mph    
Max Gust Speed 22 mph    
Visibility 10 miles    
Events      
T = Trace of Precipitation, MM = Missing Value Source: NWS Daily Summary

Daily Weather History Graph

Daily Weather History Graph

Search for Another Location

Airport or City:

Trip Planner

Search our weather history database for the weather conditions in past years. The results will help you decide how hot, cold, wet, or windy it might be!

Date:

Astronomy

Oct. 04, 2014 Rise Set
Actual Time 6:54 AM MDT 6:24 PM MDT
Civil Twilight 6:23 AM MDT 6:55 PM MDT
Nautical Twilight 5:48 AM MDT 7:30 PM MDT
Astronomical Twilight 5:12 AM MDT 8:05 PM MDT
Moon 4:16 PM MDT (10/4) 2:09 AM MDT (10/4)
Length of Visible Light 12h 31m
Length of Day
11h 30m
Waxing Gibbous, 81% of the Moon is Illuminated
Oct 4
Waxing Gibbous
Oct 8
Full
Oct 15
Last Quarter
Oct 23
New
Oct 30
First Quarter

Hourly Weather History & Observations

Time (MDT) Temp. Windchill Dew Point Humidity Pressure Visibility Wind Dir Wind Speed Gust Speed Precip Events Conditions
12:56 AM 26.1 °F 21.9 °F 18.0 °F 71% 30.14 in 10.0 mi WNW 3.5 mph - N/A   Clear
1:56 AM 27.0 °F 21.6 °F 19.0 °F 72% 30.14 in 10.0 mi West 4.6 mph - N/A   Clear
2:56 AM 28.9 °F 23.9 °F 21.9 °F 75% 30.12 in 10.0 mi West 4.6 mph - N/A   Overcast
3:56 AM 30.9 °F 26.2 °F 24.1 °F 76% 30.10 in 10.0 mi West 4.6 mph - N/A   Overcast
4:56 AM 32.0 °F 28.7 °F 26.1 °F 79% 30.08 in 10.0 mi WSW 3.5 mph - N/A   Overcast
5:56 AM 33.1 °F 28.7 °F 26.1 °F 75% 30.06 in 10.0 mi WSW 4.6 mph - N/A   Overcast
6:56 AM 34.0 °F - 28.0 °F 79% 30.04 in 10.0 mi Calm Calm - N/A   Overcast
7:56 AM 34.0 °F 31.0 °F 28.0 °F 79% 30.03 in 10.0 mi East 3.5 mph - N/A   Overcast
8:56 AM 37.0 °F - 28.0 °F 70% 30.02 in 10.0 mi Calm Calm - N/A   Overcast
9:56 AM 41.0 °F 39.0 °F 24.1 °F 51% 30.01 in 10.0 mi South 3.5 mph - N/A   Overcast
10:56 AM 45.0 °F 42.6 °F 24.1 °F 44% 29.98 in 10.0 mi South 4.6 mph - N/A   Overcast
11:56 AM 48.9 °F - 27.0 °F 43% 29.94 in 10.0 mi West 5.8 mph - N/A   Overcast
12:56 PM 50.0 °F - 28.0 °F 43% 29.92 in 10.0 mi West 6.9 mph - N/A   Overcast
1:56 PM 53.1 °F - 28.9 °F 40% 29.88 in 10.0 mi WNW 3.5 mph - N/A   Overcast
2:56 PM 54.0 °F - 30.9 °F 41% 29.86 in 10.0 mi West 8.1 mph - N/A   Overcast
3:56 PM 55.0 °F - 30.9 °F 40% 29.83 in 10.0 mi NW 6.9 mph - N/A   Overcast
4:56 PM 55.0 °F - 34.0 °F 45% 29.82 in 10.0 mi WNW 9.2 mph - N/A   Overcast
5:56 PM 53.1 °F - 37.0 °F 55% 29.81 in 10.0 mi WNW 9.2 mph - 0.00 in   Mostly Cloudy
6:56 PM 51.1 °F - 39.0 °F 63% 29.81 in 10.0 mi WNW 8.1 mph - N/A   Overcast
7:56 PM 48.9 °F - 37.9 °F 66% 29.80 in 10.0 mi WNW 6.9 mph - N/A   Overcast
8:56 PM 52.0 °F - 37.9 °F 59% 29.80 in 10.0 mi WNW 15.0 mph 19.6 mph N/A   Overcast
9:56 PM 46.9 °F - 37.0 °F 68% 29.82 in 10.0 mi North 8.1 mph - N/A   Clear
10:56 PM 37.9 °F 31.5 °F 33.1 °F 83% 29.81 in 10.0 mi West 9.2 mph - N/A   Clear
11:56 PM 43.0 °F 36.8 °F 37.9 °F 82% 29.79 in 10.0 mi West 11.5 mph - N/A   Partly Cloudy